Temperature
20 20 20 19 19 18 17 16 15 15 14 14 13 13 13 13 12 12 12 12 12 11 11 11 11 10 10 10 10 10 10 9 9 9 9 9 9 9 9 9 9 9 9
20 20 20 20 19 18 17 16 16 15 15 15 15 14 14 13 13 12 12 12 12 11 11 11 11 11 11 10 10 10 10 9 9 9 9 9 9 9 9 9 9 9 9
21 21 20 20 19 18 18 17 16 16 15 15 14 13 12 12 12 12 12 12 12 12 11 11 11 11 11 11 10 10 10 10 9 9 9 9 9 9 9 9 9 9 9
21 21 20 20 19 19 18 17 16 16 15 15 14 13 13 13 14 14 13 13 12 12 11 11 11 11 11 10 10 10 10 10 10 9 9 9 9 9 9 9 9 9 9
20 20 20 20 19 19 18 18 17 16 15 15 14 14 14 15 14 14 13 13 12 12 11 11 11 11 11 10 10 10 10 10 10 10 9 9 9 9 9 9 9 9 9
20 20 20 20 20 19 18 18 17 16 15 14 14 14 15 14 14 13 13 13 12 12 11 11 11 11 10 10 10 10 10 10 10 9 9 9 9 9 9 9 9 9 9
19 19 20 20 19 19 18 18 17 16 15 14 14 14 15 15 14 15 14 13 12 12 12 11 11 11 10 10 10 10 10 10 9 9 9 9 9 9 9 9 8 8 8
19 19 19 19 19 19 18 18 17 16 15 15 14 14 14 14 14 14 14 14 14 14 14 12 11 11 10 10 10 10 10 10 9 9 9 9 9 9 9 9 8 8 8
19 19 19 19 19 18 18 18 17 16 16 15 15 14 14 14 14 14 13 13 14 13 13 12 12 11 10 10 10 10 10 9 9 9 9 9 9 9 9 8 8 8 7
18 18 18 18 18 18 18 17 17 17 16 15 15 14 14 14 14 13 13 13 13 13 12 12 11 11 10 10 10 10 9 9 9 9 9 9 9 9 8 8 8 8 7
18 18 18 18 18 18 17 17 16 16 16 15 15 14 14 14 13 13 13 12 12 12 12 12 11 11 10 10 10 10 9 9 9 9 9 9 9 8 8 8 8 7 7
17 17 17 17 17 17 17 16 16 16 15 15 15 14 14 13 13 13 12 12 12 12 12 11 11 10 10 10 10 10 9 9 9 9 9 9 8 8 8 8 7 7 7
16 16 16 16 16 16 16 16 15 15 15 15 15 14 14 13 13 13 12 12 12 11 11 11 11 10 10 10 10 10 10 9 9 9 9 8 8 8 8 7 7 7 6
15 15 15 15 15 15 15 15 15 15 15 15 15 14 14 13 13 13 12 12 12 11 11 11 11 10 10 10 10 10 9 9 9 9 8 8 8 8 7 7 7 6 6
13 14 14 14 14 14 14 14 14 14 14 14 14 14 14 13 13 12 12 12 11 11 11 10 10 10 10 10 10 9 9 9 9 8 8 8 8 7 7 7 6 6 5
12 12 13 13 13 13 13 14 14 14 14 14 14 13 13 13 12 12 12 11 11 10 10 10 10 10 10 10 10 9 9 9 8 8 8 8 7 7 7 6 6 5 4
11 11 12 12 13 13 13 14 14 14 13 13 13 13 13 13 12 12 11 11 10 10 10 10 10 10 10 9 9 9 9 9 8 8 7 7 7 7 6 6 5 4 4
10 10 11 11 12 12 13 13 13 13 13 13 13 13 13 12 12 11 11 11 10 10 10 10 10 9 9 9 9 9 8 8 8 7 7 7 6 6 5 5 4 4 3
9 10 11 11 11 12 12 13 12 12 12 12 12 12 12 12 11 11 10 10 10 10 10 9 9 9 9 9 8 8 8 7 7 7 7 6 6 5 5 4 4 3 2
9 10 10 11 11 11 12 12 12 12 12 12 12 12 12 12 11 11 10 10 10 9 9 9 9 9 9 8 8 7 7 7 7 6 6 5 5 4 4 3 3 2 2
8 9 10 10 11 11 11 11 11 11 12 12 12 12 11 11 11 10 10 9 9 9 9 9 8 8 8 8 7 7 7 6 6 6 5 5 4 4 3 3 2 1 1
8 9 9 10 10 10 11 11 11 11 11 11 11 11 11 10 10 10 9 9 9 9 8 8 8 7 7 7 7 6 6 6 5 5 4 4 3 3 2 2 1 0 -0
7 8 9 9 10 10 10 11 11 11 11 11 11 10 10 10 10 9 9 9 8 8 8 8 7 7 7 6 6 6 5 5 5 4 4 3 3 2 1 1 0 -0 -1
7 7 8 8 9 9 10 10 11 11 11 10 10 10 10 9 9 9 9 9 8 8 8 7 7 7 6 6 6 5 5 4 4 4 3 2 2 1 1 0 -1 -1 -2
6 7 7 8 8 9 9 9 10 10 10 10 9 9 9 9 8 8 8 8 8 8 8 7 7 6 6 5 5 5 4 4 3 3 2 2 1 1 -0 -1 -1 -2 -3
6 6 7 8 8 8 9 9 9 10 10 9 9 9 8 8 8 8 7 6 7 7 6 6 6 6 5 5 4 4 3 3 3 2 2 1 0 -0 -1 -2 -2 -3 -4
Wind_Speed
15 15 16 16 17 17 19 21 19 18 16 14 13 13 12 11 9 8 12 15 15 15 11 7 7 7 7 7 7 5 5 4 4 3 1 1 1 2 2 3 3 5 6
16 16 16 16 18 19 20 21 22 20 19 16 14 12 11 9 9 8 10 14 15 15 12 9 8 8 7 8 8 7 5 4 4 4 3 1 2 2 2 2 2 3 5
17 17 17 17 17 18 21 21 22 21 20 17 12 11 9 8 9 11 11 11 14 15 13 11 9 9 8 8 8 8 8 5 4 4 4 3 3 2 2 3 3 4 3
15 15 16 17 18 18 19 20 21 21 21 19 17 18 16 13 13 13 11 11 13 13 14 13 11 10 8 9 9 8 6 7 5 4 3 2 3 3 1 2 3 5 5
15 15 16 17 18 18 19 19 19 21 20 20 20 19 14 12 10 10 13 14 13 12 14 14 11 11 9 10 10 9 8 6 6 5 3 2 1 2 3 3 3 3 4
15 14 14 15 16 17 18 18 19 19 20 21 21 20 18 16 15 14 15 14 11 11 14 13 12 11 10 10 10 10 10 8 7 5 5 4 3 4 4 3 3 4 4
16 14 13 14 16 18 19 19 20 20 20 22 22 21 20 19 18 16 16 14 12 11 16 14 13 12 10 10 9 10 10 10 9 7 5 5 5 4 4 4 3 2 2
16 16 15 14 14 17 19 20 21 19 21 22 22 20 19 16 13 15 14 15 13 13 15 15 13 13 12 11 10 9 9 9 9 9 7 5 5 4 4 4 3 2 2
15 15 14 14 15 16 18 21 21 18 19 21 20 19 19 17 15 14 13 13 11 12 15 16 15 13 13 12 11 9 9 9 9 9 8 6 5 4 4 4 4 5 3
12 12 12 13 14 15 15 16 18 19 17 19 19 17 18 17 15 14 14 14 14 13 15 15 15 14 13 12 11 9 9 9 8 7 8 7 5 5 4 4 3 4 5
10 11 10 11 12 13 15 15 15 14 16 18 17 16 16 15 14 13 14 14 13 14 15 15 15 14 14 13 12 11 10 11 9 8 9 8 6 5 4 4 4 4 4
9 9 9 9 11 13 14 15 15 14 14 15 15 15 14 14 14 13 13 13 14 14 14 15 15 14 14 13 13 13 12 11 11 10 9 8 6 6 5 5 5 4 4
7 7 8 9 10 12 13 13 14 14 12 13 14 15 14 15 15 14 13 13 13 13 13 14 14 14 13 13 12 12 12 11 10 10 10 9 8 7 5 5 5 4 3
5 7 8 8 8 10 11 12 12 12 12 12 14 15 15 15 14 13 13 13 13 13 13 13 13 12 12 12 11 11 10 10 9 9 9 8 9 8 7 5 5 3 3
3 5 7 8 8 9 10 10 11 11 12 12 12 13 13 13 13 13 12 12 12 12 12 12 11 11 10 10 11 10 10 9 8 7 7 7 7 7 6 5 5 4 3
1 2 4 7 9 9 10 10 10 11 12 13 12 12 12 13 13 13 12 12 12 12 12 12 12 11 8 12 15 12 9 9 9 8 7 6 6 6 6 6 6 6 5
1 2 3 4 7 9 9 10 11 11 11 12 12 12 13 13 13 13 13 13 12 12 11 11 11 10 10 15 15 14 10 9 8 8 7 5 5 6 4 5 5 4 4
3 1 1 2 4 6 8 8 10 11 11 12 12 12 13 14 13 13 13 12 11 11 11 11 11 10 11 15 16 15 9 8 7 7 7 7 6 5 5 4 3 2 1
4 2 1 1 4 7 9 10 10 11 11 12 13 13 14 14 14 14 13 11 11 10 10 10 11 11 11 14 16 14 9 8 7 6 7 7 6 7 7 5 4 2 0
5 3 1 2 4 7 9 10 10 11 12 12 13 13 13 14 14 14 12 11 11 11 11 10 10 11 11 14 15 14 8 8 7 6 6 8 8 8 7 5 5 3 1
6 4 1 3 4 7 9 10 10 10 10 11 12 12 13 13 13 12 11 13 12 12 11 11 10 10 11 13 15 13 8 8 8 6 5 5 8 8 7 6 4 3 3
5 4 1 1 3 6 9 9 10 10 10 11 12 13 13 12 12 14 12 13 14 14 12 12 10 8 9 11 12 13 11 10 8 7 5 5 9 8 7 6 5 5 5
5 4 1 1 3 4 7 9 9 12 12 12 13 13 14 13 13 14 14 12 12 11 10 10 10 8 7 9 14 14 14 14 8 7 10 10 11 9 6 7 7 5 3
5 4 2 2 3 4 5 7 10 13 14 14 14 14 14 13 12 10 10 11 11 11 11 10 10 9 8 7 7 8 9 12 10 8 10 12 11 8 7 6 4 3 2
5 4 2 3 3 4 5 7 11 14 15 14 14 14 13 14 12 10 8 9 7 11 13 10 10 11 9 9 13 10 8 7 8 9 6 5 4 4 3 3 3 3 2
5 4 3 2 3 5 6 8 10 14 16 15 14 12 12 12 13 13 12 15 13 16 16 14 13 10 13 17 16 16 15 15 15 9 6 5 4 4 3 3 2 2 2
Wind_Direction
208 199 194 188 180 176 174 175 175 176 173 174 176 177 179 178 176 176 178 178 177 176 170 165 167 162 162 167 164 153 151 150 136 113 109 287 220 192 180 167 163 167 170
209 201 194 188 182 179 176 176 178 179 179 181 182 179 173 175 176 175 182 184 182 179 177 169 171 166 164 170 170 154 154 162 158 150 145 188 291 273 207 183 183 179 175
209 201 195 190 183 181 179 180 180 181 183 178 173 168 166 169 179 186 189 189 186 183 179 176 171 173 171 176 175 166 161 167 188 183 161 164 204 213 234 217 199 198 194
214 203 195 192 186 183 180 180 180 181 183 178 178 177 181 185 189 186 185 185 188 186 182 181 179 178 177 178 179 173 167 161 178 205 211 184 156 151 206 260 230 214 211
217 209 198 191 188 182 179 180 180 182 182 182 184 184 187 189 179 176 181 187 191 189 186 185 184 183 183 182 181 175 173 171 171 174 177 204 218 188 166 223 245 245 235
215 215 201 188 185 181 178 179 180 183 183 184 186 188 188 184 179 181 186 188 190 191 190 188 189 187 185 184 183 180 178 180 179 177 171 167 175 201 190 204 217 227 236
208 211 203 189 184 180 179 180 182 185 185 186 189 192 192 189 187 185 186 185 187 192 194 191 191 191 187 183 180 180 182 182 183 185 186 186 191 180 176 183 210 223 233
204 206 202 190 182 180 180 181 184 187 187 188 192 193 192 192 192 187 185 188 191 191 189 191 192 191 187 184 181 181 183 185 187 190 186 189 197 188 179 175 173 207 252
202 200 196 187 180 180 181 183 185 188 189 189 190 192 192 192 192 187 184 186 186 184 185 189 191 191 188 186 181 185 185 183 188 191 192 190 191 186 187 178 168 173 211
199 195 194 190 183 180 180 180 185 189 188 188 190 193 193 192 189 185 184 183 182 180 183 186 190 190 188 185 183 181 179 181 187 186 189 192 189 183 181 183 183 178 185
198 193 192 187 178 173 176 178 183 186 187 187 187 187 188 187 185 185 183 180 179 178 182 184 187 188 187 183 183 184 180 184 187 186 189 193 179 175 183 182 186 191 181
195 187 181 177 173 173 176 178 181 185 186 184 182 183 181 180 182 183 180 177 177 178 179 180 183 185 185 184 185 185 184 187 189 188 185 187 178 181 185 185 192 199 195
180 172 169 170 172 171 173 175 178 180 180 177 177 178 179 180 182 180 177 175 175 174 175 176 180 181 182 182 183 183 184 187 187 183 183 183 177 188 188 186 195 199 198
170 171 168 167 167 166 167 171 173 172 170 169 172 177 180 180 179 175 173 172 172 172 172 173 175 176 177 178 177 177 177 178 178 176 177 177 181 188 185 185 188 180 184
166 174 170 165 164 162 162 162 165 166 164 166 171 174 173 170 168 167 167 165 165 166 165 165 167 168 171 174 170 169 169 170 167 164 163 167 170 173 173 172 173 169 174
117 162 172 166 166 161 158 157 158 160 161 164 166 163 163 163 162 161 159 157 158 157 158 161 162 162 165 163 162 162 162 161 162 162 157 155 154 160 167 169 175 174 176
359 170 167 168 163 158 156 157 158 155 158 160 159 158 158 158 157 155 155 157 157 154 155 157 156 157 158 156 155 154 156 155 159 157 155 154 155 154 158 160 162 172 175
337 301 190 170 158 148 145 145 149 153 155 155 156 156 155 155 153 152 155 155 154 154 154 152 152 150 154 153 151 147 144 139 143 146 149 148 148 151 148 143 144 151 159
332 299 230 164 155 148 143 142 148 149 152 156 157 157 156 154 153 153 153 148 145 145 147 147 147 146 150 150 147 142 140 136 135 134 136 141 142 144 141 142 147 138 89
342 336 42 109 144 149 143 146 153 154 159 158 156 153 153 153 152 150 145 140 140 139 138 136 139 142 144 146 144 141 141 139 136 129 130 132 138 144 145 145 146 155 175
333 337 90 149 162 152 148 153 156 162 157 147 144 145 147 146 143 139 137 135 133 131 129 125 125 130 135 141 141 140 140 142 136 131 128 128 131 134 135 126 128 136 110
336 337 356 156 158 154 152 154 159 151 141 139 139 140 139 138 137 134 134 135 134 131 128 124 119 117 124 130 134 132 128 129 129 133 131 129 128 123 120 114 101 93 88
328 323 310 180 160 158 155 156 153 143 139 136 135 134 132 133 136 137 137 137 136 135 135 133 129 125 119 124 126 125 120 118 116 122 124 120 118 111 106 99 95 88 87
314 308 279 192 179 165 154 152 147 142 139 138 136 134 131 130 128 129 135 138 141 139 138 138 135 131 126 127 129 127 119 113 110 110 111 107 105 97 96 95 88 81 87
302 297 256 213 183 154 145 143 145 141 138 137 136 132 129 126 119 108 107 124 131 145 146 146 144 143 142 143 137 133 127 125 121 116 102 97 100 94 88 88 84 78 66
291 287 266 221 171 151 146 146 147 144 141 140 138 134 131 126 122 113 94 76 96 106 112 121 126 123 129 132 129 126 126 125 126 115 116 115 115 114 111 105 86 68 65
Height
1414 1418 1423 1428 1433 1438 1443 1448 1453 1458 1464 1469 1473 1478 1482 1487 1491 1495 1499 1503 1506 1510 1513 1516 1519 1522 1524 1527 1530 1532 1534 1536 1538 1540 1541 1542 1542 1543 1543 1543 1543 1544 1543
1407 1410 1415 1420 1425 1431 1436 1441 1446 1451 1457 1461 1466 1472 1477 1482 1487 1491 1495 1499 1502 1506 1509 1512 1515 1518 1521 1524 1527 1529 1531 1534 1536 1537 1539 1540 1541 1540 1541 1541 1542 1542 1542
1398 1402 1407 1412 1417 1423 1428 1434 1439 1444 1450 1456 1463 1469 1475 1479 1483 1486 1489 1493 1498 1501 1505 1508 1512 1515 1518 1520 1523 1526 1528 1530 1533 1535 1537 1538 1538 1538 1539 1539 1539 1540 1539
1390 1395 1399 1404 1409 1415 1421 1427 1433 1438 1444 1450 1455 1460 1464 1468 1472 1477 1483 1488 1492 1496 1500 1504 1507 1510 1514 1517 1519 1522 1525 1527 1529 1532 1534 1535 1536 1536 1536 1537 1537 1537 1537
1383 1387 1391 1396 1402 1408 1414 1420 1426 1432 1438 1443 1448 1453 1458 1462 1468 1473 1478 1482 1487 1491 1495 1498 1502 1506 1509 1512 1516 1518 1521 1523 1526 1528 1530 1532 1533 1534 1534 1534 1534 1534 1534
1376 1380 1385 1390 1395 1401 1407 1413 1419 1425 1431 1436 1441 1446 1451 1456 1462 1466 1471 1476 1480 1484 1489 1493 1497 1500 1504 1507 1511 1514 1517 1520 1522 1524 1526 1528 1529 1530 1531 1531 1531 1531 1531
1368 1373 1377 1382 1387 1392 1398 1405 1411 1418 1424 1429 1434 1439 1445 1450 1454 1459 1464 1468 1473 1477 1481 1486 1490 1494 1498 1503 1507 1510 1512 1515 1518 1520 1522 1524 1526 1527 1528 1528 1528 1528 1528
1358 1364 1369 1374 1379 1384 1390 1397 1403 1410 1416 1422 1427 1433 1439 1444 1449 1454 1458 1462 1466 1470 1475 1480 1484 1489 1493 1498 1502 1505 1508 1511 1514 1516 1518 1520 1521 1523 1524 1525 1525 1524 1524
1350 1355 1361 1366 1371 1377 1382 1388 1395 1402 1409 1414 1421 1426 1432 1437 1443 1448 1453 1457 1461 1465 1470 1474 1479 1483 1488 1492 1496 1500 1503 1506 1509 1512 1514 1515 1517 1518 1519 1520 1521 1522 1520
1343 1348 1353 1359 1364 1369 1375 1381 1388 1394 1401 1408 1414 1419 1425 1431 1437 1442 1447 1451 1455 1460 1464 1469 1473 1478 1482 1487 1491 1494 1498 1501 1504 1507 1509 1511 1512 1514 1515 1516 1516 1517 1516
1338 1342 1347 1352 1357 1363 1369 1374 1381 1388 1395 1401 1407 1413 1419 1425 1431 1436 1441 1445 1450 1455 1459 1463 1468 1472 1477 1481 1485 1489 1493 1496 1499 1502 1504 1506 1507 1509 1510 1511 1511 1511 1511
1333 1338 1342 1347 1351 1357 1362 1367 1374 1381 1387 1394 1400 1406 1413 1419 1425 1430 1435 1440 1445 1450 1454 1458 1463 1467 1472 1476 1480 1484 1487 1490 1493 1496 1499 1501 1503 1504 1505 1506 1506 1506 1506
1329 1333 1337 1341 1346 1351 1356 1362 1368 1374 1381 1388 1394 1400 1406 1412 1418 1424 1429 1435 1440 1445 1449 1454 1458 1462 1467 1471 1475 1479 1482 1485 1488 1491 1493 1496 1498 1499 1500 1501 1501 1501 1501
1326 1330 1333 1337 1341 1346 1352 1357 1362 1369 1376 1382 1388 1394 1400 1406 1412 1418 1424 1429 1435 1440 1444 1449 1453 1458 1462 1466 1470 1474 1477 1481 1484 1487 1489 1491 1493 1494 1495 1496 1496 1496 1496
1325 1328 1331 1334 1338 1343 1348 1353 1359 1365 1371 1377 1383 1388 1395 1401 1408 1413 1419 1425 1430 1435 1440 1445 1449 1454 1458 1462 1466 1470 1473 1477 1479 1482 1484 1487 1488 1490 1491 1491 1491 1491 1491
1326 1327 1330 1333 1336 1340 1344 1350 1355 1360 1367 1372 1378 1384 1391 1397 1403 1408 1414 1420 1426 1431 1436 1441 1445 1450 1454 1458 1463 1466 1469 1472 1475 1478 1480 1482 1484 1485 1486 1486 1487 1487 1486
1327 1328 1329 1331 1334 1337 1341 1346 1352 1357 1363 1368 1374 1380 1387 1392 1398 1404 1410 1416 1421 1427 1432 1437 1441 1446 1450 1455 1459 1462 1466 1468 1471 1473 1476 1478 1479 1481 1482 1482 1482 1482 1481
1328 1328 1329 1330 1333 1336 1341 1345 1350 1355 1360 1365 1371 1377 1382 1388 1394 1400 1406 1412 1417 1423 1428 1433 1438 1442 1447 1451 1455 1459 1462 1465 1467 1470 1472 1474 1475 1476 1477 1477 1477 1477 1477
1329 1329 1329 1330 1332 1335 1339 1343 1348 1353 1357 1362 1368 1373 1379 1384 1390 1396 1402 1408 1414 1419 1425 1430 1435 1439 1444 1448 1452 1455 1459 1461 1464 1467 1468 1470 1472 1472 1473 1473 1473 1474 1473
1329 1328 1329 1330 1332 1335 1338 1342 1346 1351 1355 1360 1365 1370 1376 1382 1387 1393 1400 1405 1411 1417 1422 1427 1432 1437 1441 1445 1449 1452 1455 1458 1461 1463 1465 1467 1468 1469 1469 1470 1470 1469 1469
1329 1328 1329 1330 1332 1334 1338 1341 1345 1349 1354 1358 1363 1369 1374 1380 1386 1392 1398 1403 1409 1415 1420 1425 1430 1435 1439 1443 1447 1450 1452 1455 1458 1460 1462 1463 1465 1465 1466 1466 1466 1466 1466
1327 1328 1328 1329 1331 1334 1337 1339 1343 1347 1352 1357 1362 1367 1373 1379 1384 1390 1396 1402 1407 1413 1418 1423 1428 1433 1437 1441 1444 1447 1450 1453 1455 1457 1459 1460 1462 1462 1463 1463 1463 1463 1462
1327 1327 1327 1328 1330 1333 1335 1338 1342 1346 1350 1355 1360 1366 1371 1377 1383 1389 1394 1400 1405 1410 1415 1421 1425 1430 1435 1438 1442 1445 1448 1450 1453 1455 1457 1458 1459 1459 1460 1460 1460 1459 1459
1325 1326 1326 1327 1329 1331 1334 1337 1340 1344 1348 1353 1359 1364 1370 1376 1382 1388 1394 1398 1403 1408 1414 1418 1423 1428 1432 1436 1440 1443 1446 1448 1450 1452 1454 1455 1456 1457 1457 1457 1457 1456 1456
1323 1323 1324 1325 1327 1329 1332 1335 1338 1342 1346 1352 1357 1363 1368 1374 1380 1386 1393 1398 1403 1408 1413 1417 1422 1426 1430 1434 1438 1440 1443 1446 1448 1450 1451 1452 1453 1454 1454 1454 1454 1453 1453
1320 1320 1321 1322 1324 1327 1330 1333 1337 1340 1344 1349 1355 1361 1366 1372 1378 1384 1391 1398 1404 1409 1414 1418 1422 1426 1430 1433 1436 1439 1442 1444 1446 1448 1449 1450 1451 1451 1451 1451 1451 1451 1450